TimeCST,TemperatureF,Dew PointF,Humidity,Sea Level PressureIn,VisibilityMPH,Wind Direction,Wind SpeedMPH,Gust SpeedMPH,PrecipitationIn,Events,Conditions,WindDirDegrees,DateUTC
12:01 AM,37.4,33.8,87,30.19,10.0,North,10.4,-,N/A,,Mostly Cloudy,10,2013-01-02 06:01:00
12:15 AM,37.4,33.8,87,30.20,10.0,North,9.2,-,N/A,,Scattered Clouds,10,2013-01-02 06:15:00
12:53 AM,36.0,33.1,89,30.21,10.0,North,9.2,-,N/A,,Clear,350,2013-01-02 06:53:00
1:53 AM,37.0,34.0,89,30.23,10.0,North,9.2,-,N/A,,Clear,360,2013-01-02 07:53:00
2:53 AM,36.0,33.1,89,30.25,10.0,North,10.4,-,N/A,,Mostly Cloudy,350,2013-01-02 08:53:00
3:45 AM,35.6,33.8,93,30.21,10.0,North,10.4,-,N/A,,Scattered Clouds,360,2013-01-02 09:45:00
3:53 AM,36.0,33.1,89,30.24,10.0,North,10.4,-,N/A,,Mostly Cloudy,350,2013-01-02 09:53:00
4:48 AM,35.6,28.4,75,30.22,10.0,North,11.5,-,N/A,,Scattered Clouds,350,2013-01-02 10:48:00
4:53 AM,35.1,28.9,78,30.26,10.0,North,12.7,-,N/A,,Partly Cloudy,350,2013-01-02 10:53:00
5:53 AM,33.1,28.9,85,30.27,10.0,North,13.8,-,N/A,,Clear,350,2013-01-02 11:53:00
6:53 AM,33.1,28.0,82,30.27,10.0,North,10.4,-,N/A,,Clear,10,2013-01-02 12:53:00
7:53 AM,32.0,28.0,85,30.29,9.0,North,11.5,-,N/A,,Clear,360,2013-01-02 13:53:00
8:53 AM,33.1,28.0,82,30.30,9.0,North,10.4,-,N/A,,Clear,10,2013-01-02 14:53:00
9:53 AM,33.1,28.0,82,30.31,9.0,North,11.5,-,N/A,,Clear,360,2013-01-02 15:53:00
10:53 AM,34.0,28.0,79,30.31,9.0,North,9.2,-,N/A,,Clear,350,2013-01-02 16:53:00
11:53 AM,35.1,27.0,72,30.28,10.0,North,9.2,-,N/A,,Clear,10,2013-01-02 17:53:00
12:53 PM,36.0,28.0,73,30.26,10.0,North,9.2,-,N/A,,Clear,10,2013-01-02 18:53:00
1:53 PM,36.0,28.0,73,30.25,10.0,North,6.9,-,N/A,,Clear,10,2013-01-02 19:53:00
2:53 PM,36.0,25.0,64,30.27,10.0,NNE,6.9,-,N/A,,Clear,20,2013-01-02 20:53:00
3:53 PM,36.0,26.1,67,30.29,10.0,NE,4.6,-,N/A,,Clear,50,2013-01-02 21:53:00
4:53 PM,35.6,28.4,75,30.26,10.0,NE,3.5,-,N/A,,Clear,40,2013-01-02 22:53:00